Location: Unspecified
(29.9680°N, 0.0000°E)
Time: 04:25:19
(UTC+00:00)

Vanguard 1 Rocket - Pass Details

Date: 20 June 2019
Orbit: 652 x 4224 km, 34.3° (Epoch: 21 August)

Event Time Altitude Azimuth Distance (km) Brightness Sun altitude
Rises 19:55:43 0° 272° (W) 6,320 12.8 -10.4°
Reaches altitude 10° 20:00:47 10° 275° (W) 4,709 12.0 -11.3°
Maximum altitude 20:12:09 65° 356° (N) 1,385 8.5 -13.3°
Drops below altitude 10° 20:18:08 10° 79° (E) 2,574 9.3 -14.3°
Enters shadow 20:18:40 - 80° (E) 2,767 9.5 -14.4°
